EAG5501 SKBO-GOBD

Flight info

Callsign EAG5501
Flight time 6h 57m
Altitude 41000
Route MAVDA DCT AUC DCT SFD DCT MUN DCT POS DCT NOSOB DCT TUTLO DCT LUMPO
Aircraft A359/H-SDE2E3GHIJ3J4J5LM1ORWXY/LB1D1

Departure

Time 2026-04-25 16:56
Airport El Dorado International Airport (SKBO)

Arrival

Time 2026-04-25 23:54
Airport Blaise Diagne International Airport (GOBD)
Time Latitude Longitude Altitude Speed Heading
2026-04-25 16:47 4.70164 -74.14424 8373 ft 0 kts 128°
2026-04-25 16:48 4.70165 -74.14426 8373 ft 2 kts 127°
2026-04-25 16:48 4.70181 -74.14446 8375 ft 4 kts 123°
2026-04-25 16:48 4.70190 -74.14470 8375 ft 4 kts 85°
2026-04-25 16:49 4.70182 -74.14494 8374 ft 4 kts 49°
2026-04-25 16:49 4.70170 -74.14506 8376 ft 1 kts 37°
2026-04-25 16:49 4.70168 -74.14507 8376 ft 0 kts 37°
2026-04-25 16:51 4.70169 -74.14506 8376 ft 1 kts 37°
2026-04-25 16:51 4.70186 -74.14493 8375 ft 6 kts 37°
2026-04-25 16:51 4.70232 -74.14458 8371 ft 11 kts 37°
2026-04-25 16:51 4.70278 -74.14423 8373 ft 14 kts 37°
2026-04-25 16:52 4.70384 -74.14345 8375 ft 17 kts 26°
2026-04-25 16:52 4.70478 -74.14397 8372 ft 18 kts 308°
2026-04-25 16:52 4.70560 -74.14505 8372 ft 21 kts 307°
2026-04-25 16:52 4.70656 -74.14632 8373 ft 24 kts 307°
2026-04-25 16:53 4.70885 -74.14932 8373 ft 30 kts 307°
2026-04-25 16:53 4.71014 -74.15107 8372 ft 32 kts 306°
2026-04-25 16:53 4.71177 -74.15225 8374 ft 29 kts 353°
2026-04-25 16:54 4.71302 -74.15217 8372 ft 11 kts 33°
2026-04-25 16:54 4.71308 -74.15176 8372 ft 8 kts 103°
2026-04-25 16:54 4.71274 -74.15120 8372 ft 2 kts 129°
2026-04-25 16:55 4.71259 -74.15102 8370 ft 20 kts 129°
2026-04-25 16:55 4.71061 -74.14842 8371 ft 46 kts 127°
2026-04-25 16:55 4.70809 -74.14509 8373 ft 91 kts 127°
2026-04-25 16:56 4.70277 -74.13806 8370 ft 159 kts 127°
2026-04-25 16:56 4.69501 -74.12784 8764 ft 189 kts 126°
2026-04-25 16:56 4.68739 -74.11763 9890 ft 182 kts 126°
2026-04-25 16:56 4.68454 -74.10614 10583 ft 165 kts 79°
2026-04-25 16:57 4.69084 -74.09817 11042 ft 148 kts 16°
2026-04-25 16:57 4.69807 -74.09763 11168 ft 166 kts 352°
2026-04-25 16:57 4.71387 -74.09366 11503 ft 192 kts 38°
2026-04-25 16:57 4.72557 -74.08576 11796 ft 212 kts 24°
2026-04-25 16:58 4.73992 -74.07999 12133 ft 232 kts 19°
2026-04-25 16:58 4.75563 -74.07451 12457 ft 253 kts 19°
2026-04-25 16:58 4.77313 -74.06859 12745 ft 276 kts 18°
2026-04-25 16:58 4.79213 -74.06222 12847 ft 297 kts 18°
2026-04-25 16:59 4.81234 -74.05546 13232 ft 316 kts 18°
2026-04-25 16:59 4.83390 -74.04825 13588 ft 335 kts 18°
2026-04-25 16:59 4.85611 -74.04017 13935 ft 351 kts 24°
2026-04-25 16:59 4.87705 -74.02701 14407 ft 360 kts 41°
2026-04-25 17:00 4.89454 -74.00860 14994 ft 365 kts 50°
2026-04-25 17:00 4.91012 -73.98821 15581 ft 371 kts 54°
2026-04-25 17:00 4.92470 -73.96670 16182 ft 376 kts 56°
2026-04-25 17:00 4.93888 -73.94467 16765 ft 381 kts 57°
2026-04-25 17:01 4.95319 -73.92222 17399 ft 384 kts 57°
2026-04-25 17:01 4.96775 -73.89958 18010 ft 388 kts 56°
2026-04-25 17:01 4.98264 -73.87675 18599 ft 391 kts 56°
2026-04-25 17:01 4.99779 -73.85382 19135 ft 395 kts 56°
2026-04-25 17:02 5.01296 -73.83102 19703 ft 397 kts 56°
2026-04-25 17:02 5.02843 -73.80787 20270 ft 400 kts 55°
2026-04-25 17:02 5.04401 -73.78458 20856 ft 403 kts 55°
2026-04-25 17:02 5.05970 -73.76114 21428 ft 406 kts 55°
2026-04-25 17:03 5.07550 -73.73752 22025 ft 408 kts 55°
2026-04-25 17:03 5.09138 -73.71376 22596 ft 411 kts 55°
2026-04-25 17:03 5.10719 -73.69008 23156 ft 414 kts 56°
2026-04-25 17:03 5.12332 -73.66594 23707 ft 417 kts 56°
2026-04-25 17:04 5.13955 -73.64163 24141 ft 420 kts 56°
2026-04-25 17:04 5.15585 -73.61720 24685 ft 421 kts 56°
2026-04-25 17:04 5.17224 -73.59265 25178 ft 424 kts 56°
2026-04-25 17:04 5.18870 -73.56798 25702 ft 426 kts 56°
2026-04-25 17:05 5.20525 -73.54318 26202 ft 430 kts 56°
2026-04-25 17:05 5.23851 -73.49332 27205 ft 435 kts 56°
2026-04-25 17:05 5.25541 -73.46800 27743 ft 437 kts 56°
2026-04-25 17:06 5.27247 -73.44242 28208 ft 441 kts 56°
2026-04-25 17:06 5.28960 -73.41671 28704 ft 443 kts 56°
2026-04-25 17:06 5.30685 -73.39084 29182 ft 446 kts 57°
2026-04-25 17:06 5.32394 -73.36520 29663 ft 449 kts 57°
2026-04-25 17:07 5.34139 -73.33903 30103 ft 452 kts 57°
2026-04-25 17:07 5.35901 -73.31259 30448 ft 456 kts 57°
2026-04-25 17:07 5.37674 -73.28600 30763 ft 460 kts 57°
2026-04-25 17:07 5.39469 -73.25906 31005 ft 467 kts 57°
2026-04-25 17:08 5.41280 -73.23188 31365 ft 469 kts 57°
2026-04-25 17:08 5.43103 -73.20451 31733 ft 472 kts 57°
2026-04-25 17:08 5.44914 -73.17734 32091 ft 474 kts 57°
2026-04-25 17:08 5.46753 -73.14972 32440 ft 477 kts 57°
2026-04-25 17:09 5.48607 -73.12189 32820 ft 479 kts 57°
2026-04-25 17:09 5.50468 -73.09395 33157 ft 482 kts 58°
2026-04-25 17:09 5.52316 -73.06619 33472 ft 485 kts 58°
2026-04-25 17:09 5.54191 -73.03803 33788 ft 487 kts 58°
2026-04-25 17:10 5.56081 -73.00963 34093 ft 489 kts 58°
2026-04-25 17:10 5.57975 -72.98117 34352 ft 492 kts 58°
2026-04-25 17:10 5.59880 -72.95254 34593 ft 494 kts 58°
2026-04-25 17:10 5.61798 -72.92372 34960 ft 493 kts 58°
2026-04-25 17:11 5.63681 -72.89543 35361 ft 492 kts 58°
2026-04-25 17:11 5.65585 -72.86682 35696 ft 491 kts 58°
2026-04-25 17:11 5.67488 -72.83821 36025 ft 491 kts 58°
2026-04-25 17:11 5.69379 -72.80977 36385 ft 489 kts 58°
2026-04-25 17:12 5.71253 -72.78159 36715 ft 489 kts 58°
2026-04-25 17:12 5.73144 -72.75316 37047 ft 488 kts 58°
2026-04-25 17:12 5.75032 -72.72475 37391 ft 488 kts 58°
2026-04-25 17:12 5.76920 -72.69634 37723 ft 487 kts 58°
2026-04-25 17:13 5.78796 -72.66812 38040 ft 486 kts 58°
2026-04-25 17:13 5.79405 -72.65894 38143 ft 486 kts 58°
2026-04-25 17:13 5.82522 -72.61203 38704 ft 484 kts 58°
2026-04-25 17:13 5.84388 -72.58393 39014 ft 483 kts 58°
2026-04-25 17:14 5.86253 -72.55585 39349 ft 481 kts 58°
2026-04-25 17:14 5.88115 -72.52782 39543 ft 481 kts 58°
2026-04-25 17:14 5.89955 -72.50010 39716 ft 482 kts 58°
2026-04-25 17:14 5.91818 -72.47202 39917 ft 482 kts 58°
2026-04-25 17:15 5.93680 -72.44396 40132 ft 481 kts 58°
2026-04-25 17:15 5.95542 -72.41593 40323 ft 481 kts 58°
2026-04-25 17:15 5.97402 -72.38790 40502 ft 481 kts 58°
2026-04-25 17:15 5.99239 -72.36021 40678 ft 481 kts 58°
2026-04-25 17:16 6.01093 -72.33226 40834 ft 481 kts 58°
2026-04-25 17:16 6.02951 -72.30420 40962 ft 481 kts 58°
2026-04-25 17:16 6.04621 -72.27501 41068 ft 481 kts 66°
2026-04-25 17:16 6.06022 -72.24424 41052 ft 484 kts 68°
2026-04-25 17:17 6.08545 -72.18098 41046 ft 491 kts 70°
2026-04-25 17:17 6.10967 -72.11674 41077 ft 496 kts 70°
2026-04-25 17:18 6.13436 -72.05166 41034 ft 499 kts 70°
2026-04-25 17:18 6.15926 -71.98677 41034 ft 500 kts 70°
2026-04-25 17:19 6.18442 -71.92143 40993 ft 499 kts 70°
2026-04-25 17:19 6.20951 -71.85625 40993 ft 500 kts 70°
2026-04-25 17:20 6.23445 -71.79143 40980 ft 500 kts 70°
2026-04-25 17:20 6.25955 -71.72612 40979 ft 500 kts 70°
2026-04-25 17:21 6.28042 -71.67180 40963 ft 500 kts 70°
2026-04-25 17:21 6.30937 -71.59644 40964 ft 500 kts 70°
2026-04-25 17:22 6.32618 -71.55266 40967 ft 500 kts 70°
2026-04-25 17:22 6.35544 -71.47642 40966 ft 503 kts 70°
2026-04-25 17:23 6.38055 -71.41096 40956 ft 504 kts 70°
2026-04-25 17:23 6.40579 -71.34514 40955 ft 504 kts 70°
2026-04-25 17:24 6.43101 -71.27935 40955 ft 504 kts 70°
2026-04-25 17:24 6.45610 -71.21388 40955 ft 504 kts 70°
2026-04-25 17:25 6.48132 -71.14802 40958 ft 504 kts 70°
2026-04-25 17:25 6.50655 -71.08213 40955 ft 504 kts 70°
2026-04-25 17:26 6.53162 -71.01660 40952 ft 505 kts 70°
2026-04-25 17:26 6.55690 -70.95048 40951 ft 505 kts 70°
2026-04-25 17:27 6.58194 -70.88500 40952 ft 505 kts 70°
2026-04-25 17:27 6.60297 -70.82994 40950 ft 507 kts 70°
2026-04-25 17:28 6.63263 -70.75232 40952 ft 509 kts 70°
2026-04-25 17:28 6.65790 -70.68612 40949 ft 509 kts 70°
2026-04-25 17:29 6.68332 -70.61951 40949 ft 509 kts 70°
2026-04-25 17:29 6.70876 -70.55282 40946 ft 509 kts 70°
2026-04-25 17:30 6.73407 -70.48644 40951 ft 511 kts 70°
2026-04-25 17:30 6.75951 -70.41969 40949 ft 512 kts 70°
2026-04-25 17:31 6.78504 -70.35267 40946 ft 512 kts 70°
2026-04-25 17:31 6.81037 -70.28613 40945 ft 512 kts 70°
2026-04-25 17:32 6.83580 -70.21931 40942 ft 512 kts 70°
2026-04-25 17:32 6.86125 -70.15240 40941 ft 512 kts 70°
2026-04-25 17:33 6.88656 -70.08583 40944 ft 512 kts 70°
2026-04-25 17:33 6.91206 -70.01875 40943 ft 512 kts 70°
2026-04-25 17:34 6.93749 -69.95178 40941 ft 512 kts 70°
2026-04-25 17:34 6.96282 -69.88507 40941 ft 512 kts 70°
2026-04-25 17:35 6.98821 -69.81816 40939 ft 512 kts 70°
2026-04-25 17:35 7.01368 -69.75102 40938 ft 512 kts 70°
2026-04-25 17:36 7.03910 -69.68396 40941 ft 512 kts 70°
2026-04-25 17:36 7.06438 -69.61725 40939 ft 512 kts 70°
2026-04-25 17:37 7.08982 -69.55009 40938 ft 512 kts 70°
2026-04-25 17:37 7.11521 -69.48301 40941 ft 511 kts 70°
2026-04-25 17:38 7.13629 -69.42730 40936 ft 512 kts 70°
2026-04-25 17:38 7.16588 -69.34907 40936 ft 513 kts 70°
2026-04-25 17:39 7.19136 -69.28165 40936 ft 513 kts 70°
2026-04-25 17:39 7.21663 -69.21476 40936 ft 513 kts 70°
2026-04-25 17:40 7.24207 -69.14740 40935 ft 513 kts 70°
2026-04-25 17:40 7.26727 -69.08064 40933 ft 513 kts 70°
2026-04-25 17:41 7.29265 -69.01336 40935 ft 513 kts 70°
2026-04-25 17:41 7.31802 -68.94609 40936 ft 513 kts 70°
2026-04-25 17:42 7.34338 -68.87879 40933 ft 513 kts 70°
2026-04-25 17:42 7.36855 -68.81197 40930 ft 513 kts 70°
2026-04-25 17:43 7.39390 -68.74462 40930 ft 512 kts 70°
2026-04-25 17:43 7.41920 -68.67738 40928 ft 512 kts 70°
2026-04-25 17:44 7.44435 -68.61052 40928 ft 513 kts 70°
2026-04-25 17:44 7.46969 -68.54310 40925 ft 514 kts 70°
2026-04-25 17:45 7.48662 -68.49805 40925 ft 514 kts 70°
2026-04-25 17:45 7.52027 -68.40845 40925 ft 513 kts 70°
2026-04-25 17:46 7.54549 -68.34123 40925 ft 513 kts 70°
2026-04-25 17:46 7.57076 -68.27387 40924 ft 513 kts 70°
2026-04-25 17:47 7.59585 -68.20695 40925 ft 513 kts 70°
2026-04-25 17:47 7.62111 -68.13954 40925 ft 512 kts 70°
2026-04-25 17:48 7.65885 -68.03875 40922 ft 511 kts 70°
2026-04-25 17:49 7.68380 -67.97208 40921 ft 511 kts 70°
2026-04-25 17:49 7.70899 -67.90475 40920 ft 511 kts 70°
2026-04-25 17:50 7.73397 -67.83793 40918 ft 511 kts 70°
2026-04-25 17:50 7.75905 -67.77079 40916 ft 511 kts 70°
2026-04-25 17:51 7.78418 -67.70351 40913 ft 512 kts 70°
2026-04-25 17:51 7.80911 -67.63670 40914 ft 511 kts 70°
2026-04-25 17:52 7.83423 -67.56937 40914 ft 512 kts 70°
2026-04-25 17:52 7.85926 -67.50222 40916 ft 510 kts 70°
2026-04-25 17:53 7.88412 -67.43552 40914 ft 509 kts 70°
2026-04-25 17:53 7.91160 -67.36951 40914 ft 510 kts 66°
2026-04-25 17:54 7.94115 -67.30491 40914 ft 510 kts 66°
2026-04-25 17:54 7.97070 -67.23966 40912 ft 510 kts 66°
2026-04-25 17:55 7.99952 -67.17474 40910 ft 508 kts 67°
2026-04-25 17:55 8.02832 -67.10936 40911 ft 508 kts 67°
2026-04-25 17:56 8.05697 -67.04423 40911 ft 508 kts 67°
2026-04-25 17:56 8.08550 -66.97939 40908 ft 508 kts 67°
2026-04-25 17:57 8.11424 -66.91410 40911 ft 508 kts 67°
2026-04-25 17:57 8.14278 -66.84922 40908 ft 508 kts 67°
2026-04-25 17:58 8.17147 -66.78398 40908 ft 508 kts 67°
2026-04-25 17:58 8.20019 -66.71861 40909 ft 508 kts 67°
2026-04-25 17:59 8.22875 -66.65360 40909 ft 508 kts 67°
2026-04-25 17:59 8.25738 -66.58837 40908 ft 508 kts 67°
2026-04-25 18:00 8.28610 -66.52292 40910 ft 509 kts 67°
2026-04-25 18:00 8.31462 -66.45789 40911 ft 509 kts 67°
2026-04-25 18:01 8.34335 -66.39233 40913 ft 509 kts 67°
2026-04-25 18:01 8.37184 -66.32730 40911 ft 507 kts 67°
2026-04-25 18:02 8.40044 -66.26199 40911 ft 507 kts 67°
2026-04-25 18:02 8.42883 -66.19711 40911 ft 508 kts 67°
2026-04-25 18:03 8.45743 -66.13171 40909 ft 509 kts 67°
2026-04-25 18:03 8.48610 -66.06613 40908 ft 509 kts 67°
2026-04-25 18:04 8.51453 -66.00106 40908 ft 509 kts 67°
2026-04-25 18:04 8.54311 -65.93562 40909 ft 509 kts 67°
2026-04-25 18:05 8.57180 -65.86988 40909 ft 511 kts 67°
2026-04-25 18:05 8.60042 -65.80427 40909 ft 512 kts 67°
2026-04-25 18:06 8.62923 -65.73819 40908 ft 512 kts 67°
2026-04-25 18:06 8.65786 -65.67251 40909 ft 513 kts 67°
2026-04-25 18:07 8.68657 -65.60657 40911 ft 514 kts 67°
2026-04-25 18:07 8.71540 -65.54033 40908 ft 512 kts 67°
2026-04-25 18:08 8.74415 -65.47426 40909 ft 512 kts 67°
2026-04-25 18:08 8.77262 -65.40878 40908 ft 512 kts 67°
2026-04-25 18:09 8.80132 -65.34274 40906 ft 512 kts 67°
2026-04-25 18:09 8.82996 -65.27678 40906 ft 512 kts 67°
2026-04-25 18:10 8.85374 -65.22202 40904 ft 511 kts 67°
2026-04-25 18:10 8.88705 -65.14523 40906 ft 511 kts 68°
2026-04-25 18:11 8.91563 -65.07930 40909 ft 511 kts 68°
2026-04-25 18:11 8.93939 -65.02448 40907 ft 512 kts 67°
2026-04-25 18:12 8.96784 -64.95881 40904 ft 512 kts 67°
2026-04-25 18:12 8.99641 -64.89281 40906 ft 511 kts 67°
2026-04-25 18:13 9.02478 -64.82723 40906 ft 511 kts 67°
2026-04-25 18:13 9.05329 -64.76130 40903 ft 511 kts 67°
2026-04-25 18:14 9.09592 -64.66265 40906 ft 511 kts 67°
2026-04-25 18:14 9.12436 -64.59678 40909 ft 511 kts 67°
2026-04-25 18:15 9.15282 -64.53083 40906 ft 511 kts 67°
2026-04-25 18:15 9.18126 -64.46489 40906 ft 511 kts 67°
2026-04-25 18:16 9.20951 -64.39936 40905 ft 511 kts 67°
2026-04-25 18:17 9.25202 -64.30066 40909 ft 510 kts 68°
2026-04-25 18:17 9.28050 -64.23450 40905 ft 510 kts 68°
2026-04-25 18:18 9.30880 -64.16872 40903 ft 510 kts 68°
2026-04-25 18:18 9.33694 -64.10325 40912 ft 510 kts 68°
2026-04-25 18:19 9.36533 -64.03717 40909 ft 510 kts 68°
2026-04-25 18:19 9.39361 -63.97133 40908 ft 508 kts 68°
2026-04-25 18:20 9.42166 -63.90597 40906 ft 508 kts 68°
2026-04-25 18:20 9.44984 -63.84025 40903 ft 508 kts 68°
2026-04-25 18:21 9.47782 -63.77497 40903 ft 508 kts 68°
2026-04-25 18:21 9.50597 -63.70925 40896 ft 508 kts 68°
2026-04-25 18:22 9.53415 -63.64344 40899 ft 508 kts 68°
2026-04-25 18:22 9.56210 -63.57812 40892 ft 508 kts 68°
2026-04-25 18:23 9.59023 -63.51233 40893 ft 508 kts 68°
2026-04-25 18:23 9.61838 -63.44646 40892 ft 508 kts 68°
2026-04-25 18:24 9.64626 -63.38119 40895 ft 507 kts 68°
2026-04-25 18:24 9.67433 -63.31543 40886 ft 506 kts 68°
2026-04-25 18:25 9.70229 -63.24989 40885 ft 506 kts 68°
2026-04-25 18:25 9.73007 -63.18471 40895 ft 506 kts 68°
2026-04-25 18:26 9.75794 -63.11904 40890 ft 506 kts 68°
2026-04-25 18:26 9.78516 -63.05317 40891 ft 506 kts 68°
2026-04-25 18:27 9.81211 -62.98756 40889 ft 506 kts 68°
2026-04-25 18:27 9.83931 -62.92156 40896 ft 506 kts 68°
2026-04-25 18:28 9.86636 -62.85607 40898 ft 506 kts 68°
2026-04-25 18:28 9.89367 -62.78990 40898 ft 506 kts 68°
2026-04-25 18:29 9.93437 -62.69126 40897 ft 507 kts 68°
2026-04-25 18:30 9.98869 -62.55940 40901 ft 507 kts 68°
2026-04-25 18:30 10.01591 -62.49328 40901 ft 507 kts 68°
2026-04-25 18:31 10.04314 -62.42709 40902 ft 507 kts 68°
2026-04-25 18:31 10.07016 -62.36136 40905 ft 507 kts 68°
2026-04-25 18:32 10.09736 -62.29516 40903 ft 507 kts 68°
2026-04-25 18:32 10.12452 -62.22901 40903 ft 507 kts 68°
2026-04-25 18:33 10.15153 -62.16318 40906 ft 506 kts 68°
2026-04-25 18:33 10.17858 -62.09720 40908 ft 506 kts 68°
2026-04-25 18:34 10.20542 -62.03169 40911 ft 505 kts 68°
2026-04-25 18:34 10.23248 -61.96561 40911 ft 506 kts 68°
2026-04-25 18:35 10.25932 -61.90002 40911 ft 506 kts 68°
2026-04-25 18:35 10.28634 -61.83395 40914 ft 506 kts 68°
2026-04-25 18:36 10.31333 -61.76789 40914 ft 506 kts 68°
2026-04-25 18:36 10.34015 -61.70220 40915 ft 506 kts 68°
2026-04-25 18:37 10.36722 -61.63589 40911 ft 507 kts 68°
2026-04-25 18:37 10.39406 -61.57007 40920 ft 507 kts 68°
2026-04-25 18:38 10.42106 -61.50383 40914 ft 507 kts 68°
2026-04-25 18:38 10.44807 -61.43752 40926 ft 507 kts 68°
2026-04-25 18:39 10.46972 -61.36952 40928 ft 505 kts 79°
2026-04-25 18:39 10.48293 -61.29972 40928 ft 505 kts 81°
2026-04-25 18:40 10.49490 -61.22928 40926 ft 504 kts 81°
2026-04-25 18:40 10.50665 -61.15943 40928 ft 504 kts 81°
2026-04-25 18:41 10.51864 -61.08908 40928 ft 504 kts 81°
2026-04-25 18:41 10.53070 -61.01876 40929 ft 504 kts 81°
2026-04-25 18:42 10.53867 -60.97227 40927 ft 504 kts 81°
2026-04-25 18:42 10.55471 -60.87865 40928 ft 504 kts 81°
2026-04-25 18:43 10.56673 -60.80833 40930 ft 505 kts 81°
2026-04-25 18:43 10.57869 -60.73825 40928 ft 505 kts 81°
2026-04-25 18:44 10.59069 -60.66780 40930 ft 505 kts 81°
2026-04-25 18:44 10.60268 -60.59739 40929 ft 505 kts 81°
2026-04-25 18:45 10.61458 -60.52734 40929 ft 505 kts 81°
2026-04-25 18:45 10.62654 -60.45689 40929 ft 505 kts 81°
2026-04-25 18:46 10.63847 -60.38650 40927 ft 504 kts 81°
2026-04-25 18:46 10.65029 -60.31662 40926 ft 503 kts 81°
2026-04-25 18:47 10.66217 -60.24636 40926 ft 503 kts 81°
2026-04-25 18:47 10.67396 -60.17647 40925 ft 503 kts 81°
2026-04-25 18:48 10.68581 -60.10616 40925 ft 504 kts 81°
2026-04-25 18:48 10.69757 -60.03625 40925 ft 504 kts 81°
2026-04-25 18:49 10.70943 -59.96570 40928 ft 505 kts 81°
2026-04-25 18:49 10.72118 -59.89567 40928 ft 505 kts 81°
2026-04-25 18:50 10.73304 -59.82488 40927 ft 506 kts 81°
2026-04-25 18:50 10.74480 -59.75465 40919 ft 507 kts 81°
2026-04-25 18:51 10.75272 -59.70728 40925 ft 507 kts 81°
2026-04-25 18:51 10.76841 -59.61330 40925 ft 508 kts 81°
2026-04-25 18:52 10.78023 -59.54234 40925 ft 509 kts 81°
2026-04-25 18:52 10.79210 -59.47097 40925 ft 510 kts 81°
2026-04-25 18:53 10.80387 -59.40012 40928 ft 510 kts 81°
2026-04-25 18:53 10.81564 -59.32919 40925 ft 510 kts 81°
2026-04-25 18:54 10.83338 -59.22204 40928 ft 511 kts 81°
2026-04-25 18:55 10.84511 -59.15108 40928 ft 512 kts 81°
2026-04-25 18:55 10.85693 -59.07948 40928 ft 512 kts 81°
2026-04-25 18:56 10.86871 -59.00801 40927 ft 512 kts 81°
2026-04-25 18:56 10.88041 -58.93692 40923 ft 512 kts 81°
2026-04-25 18:57 10.89220 -58.86517 40926 ft 512 kts 81°
2026-04-25 18:57 10.90387 -58.79403 40923 ft 512 kts 81°
2026-04-25 18:58 10.91561 -58.72242 40926 ft 512 kts 81°
2026-04-25 18:58 10.93318 -58.61497 40927 ft 512 kts 81°
2026-04-25 18:59 10.95648 -58.47207 40929 ft 513 kts 81°
2026-04-25 19:00 10.97203 -58.37653 40935 ft 514 kts 81°
2026-04-25 19:01 10.98948 -58.26904 40926 ft 513 kts 81°
2026-04-25 19:01 11.00300 -58.18555 40926 ft 514 kts 81°
2026-04-25 19:02 11.01851 -58.08967 40930 ft 513 kts 81°
2026-04-25 19:03 11.03393 -57.99410 40928 ft 513 kts 81°
2026-04-25 19:03 11.04736 -57.91067 40925 ft 513 kts 81°
2026-04-25 19:04 11.06463 -57.80330 40933 ft 514 kts 81°
2026-04-25 19:05 11.08759 -57.66004 40937 ft 513 kts 81°
2026-04-25 19:06 11.09910 -57.58806 40930 ft 514 kts 81°
2026-04-25 19:06 11.11628 -57.48048 40929 ft 514 kts 81°
2026-04-25 19:07 11.13348 -57.37238 40931 ft 514 kts 81°
2026-04-25 19:08 11.15061 -57.26458 40936 ft 515 kts 81°
2026-04-25 19:09 11.17147 -57.13290 40929 ft 515 kts 81°
2026-04-25 19:10 11.19043 -57.01294 40933 ft 515 kts 81°
2026-04-25 19:10 11.20182 -56.94073 40934 ft 515 kts 81°
2026-04-25 19:11 11.21309 -56.86908 40928 ft 515 kts 81°
2026-04-25 19:11 11.22445 -56.79687 40933 ft 514 kts 81°
2026-04-25 19:12 11.23577 -56.72533 40930 ft 513 kts 80°
2026-04-25 19:12 11.25551 -56.65530 40931 ft 514 kts 72°
2026-04-25 19:13 11.27892 -56.58644 40939 ft 514 kts 71°
2026-04-25 19:13 11.30270 -56.51821 40939 ft 513 kts 71°
2026-04-25 19:14 11.32659 -56.44935 40939 ft 514 kts 71°
2026-04-25 19:14 11.35018 -56.38093 40938 ft 514 kts 71°
2026-04-25 19:15 11.37384 -56.31208 40939 ft 514 kts 71°
2026-04-25 19:15 11.39750 -56.24317 40934 ft 513 kts 71°
2026-04-25 19:16 11.42099 -56.17475 40937 ft 513 kts 71°
2026-04-25 19:16 11.44459 -56.10596 40936 ft 513 kts 71°
2026-04-25 19:17 11.46801 -56.03761 40937 ft 513 kts 71°
2026-04-25 19:17 11.49161 -55.96868 40941 ft 513 kts 71°
2026-04-25 19:18 11.51504 -55.90020 40940 ft 514 kts 71°
2026-04-25 19:18 11.53857 -55.83137 40943 ft 513 kts 71°
2026-04-25 19:19 11.56195 -55.76291 40940 ft 513 kts 71°
2026-04-25 19:19 11.58545 -55.69404 40942 ft 513 kts 71°
2026-04-25 19:20 11.60892 -55.62519 40943 ft 513 kts 71°
2026-04-25 19:20 11.63222 -55.55680 40937 ft 513 kts 71°
2026-04-25 19:21 11.65571 -55.48779 40943 ft 513 kts 71°
2026-04-25 19:21 11.69058 -55.38523 40939 ft 512 kts 71°
2026-04-25 19:22 11.71390 -55.31655 40938 ft 512 kts 72°
2026-04-25 19:23 11.74873 -55.21385 40938 ft 511 kts 72°
2026-04-25 19:23 11.78373 -55.11058 40941 ft 512 kts 71°
2026-04-25 19:24 11.80689 -55.04213 40947 ft 512 kts 71°
2026-04-25 19:25 11.85340 -54.90456 40942 ft 511 kts 72°
2026-04-25 19:25 11.87645 -54.83626 40946 ft 511 kts 72°
2026-04-25 19:26 11.89952 -54.76786 40946 ft 511 kts 72°
2026-04-25 19:26 11.92269 -54.69910 40947 ft 511 kts 72°
2026-04-25 19:27 11.94195 -54.64191 40946 ft 511 kts 72°
2026-04-25 19:27 11.96879 -54.56210 40951 ft 510 kts 72°
2026-04-25 19:28 11.99186 -54.49345 40953 ft 510 kts 72°
2026-04-25 19:28 12.01490 -54.42483 40951 ft 510 kts 72°
2026-04-25 19:29 12.03789 -54.35625 40944 ft 509 kts 72°
2026-04-25 19:29 12.06074 -54.28810 40947 ft 509 kts 72°
2026-04-25 19:30 12.08370 -54.21953 40952 ft 509 kts 73°
2026-04-25 19:30 12.10659 -54.15112 40952 ft 507 kts 72°
2026-04-25 19:31 12.12929 -54.08319 40951 ft 507 kts 73°
2026-04-25 19:31 12.15211 -54.01484 40953 ft 507 kts 72°
2026-04-25 19:32 12.17475 -53.94698 40951 ft 507 kts 72°
2026-04-25 19:32 12.19003 -53.90113 40951 ft 508 kts 72°
2026-04-25 19:33 12.22032 -53.81021 40947 ft 508 kts 72°
2026-04-25 19:33 12.24313 -53.74167 40955 ft 508 kts 72°
2026-04-25 19:34 12.26575 -53.67364 40951 ft 506 kts 73°
2026-04-25 19:34 12.28846 -53.60525 40953 ft 506 kts 72°
2026-04-25 19:35 12.31095 -53.53747 40956 ft 506 kts 72°
2026-04-25 19:35 12.33357 -53.46923 40952 ft 506 kts 72°
2026-04-25 19:36 12.35617 -53.40098 40956 ft 506 kts 72°
2026-04-25 19:36 12.37865 -53.33304 40954 ft 507 kts 72°
2026-04-25 19:37 12.40135 -53.26439 40957 ft 509 kts 72°
2026-04-25 19:37 12.42384 -53.19630 40953 ft 508 kts 73°
2026-04-25 19:38 12.44648 -53.12770 40952 ft 507 kts 73°
2026-04-25 19:38 12.46894 -53.05957 40953 ft 507 kts 73°
2026-04-25 19:39 12.49150 -52.99105 40959 ft 507 kts 73°
2026-04-25 19:39 12.51388 -52.92306 40959 ft 506 kts 73°
2026-04-25 19:40 12.53639 -52.85458 40959 ft 506 kts 73°
2026-04-25 19:40 12.55871 -52.78661 40959 ft 506 kts 73°
2026-04-25 19:41 12.58117 -52.71815 40963 ft 507 kts 73°
2026-04-25 19:41 12.59619 -52.67233 40959 ft 507 kts 73°
2026-04-25 19:42 12.62602 -52.58128 40961 ft 507 kts 73°
2026-04-25 19:42 12.64850 -52.51258 40964 ft 507 kts 73°
2026-04-25 19:43 12.67078 -52.44442 40963 ft 507 kts 73°
2026-04-25 19:43 12.69305 -52.37623 40966 ft 507 kts 73°
2026-04-25 19:44 12.71539 -52.30774 40963 ft 507 kts 73°
2026-04-25 19:44 12.73768 -52.23935 40965 ft 507 kts 73°
2026-04-25 19:45 12.76003 -52.17071 40961 ft 506 kts 73°
2026-04-25 19:45 12.78224 -52.10243 40963 ft 508 kts 73°
2026-04-25 19:46 12.80462 -52.03356 40969 ft 508 kts 73°
2026-04-25 19:46 12.82682 -51.96521 40962 ft 507 kts 73°
2026-04-25 19:47 12.84912 -51.89646 40968 ft 507 kts 73°
2026-04-25 19:47 12.87122 -51.82824 40961 ft 507 kts 73°
2026-04-25 19:48 12.89347 -51.75953 40964 ft 507 kts 73°
2026-04-25 19:48 12.91194 -51.70241 40966 ft 507 kts 73°
2026-04-25 19:49 12.93039 -51.64531 40968 ft 507 kts 73°
2026-04-25 19:49 12.95623 -51.56527 40969 ft 507 kts 73°
2026-04-25 19:50 12.98956 -51.46191 40965 ft 508 kts 73°
2026-04-25 19:51 13.01158 -51.39353 40959 ft 508 kts 73°
2026-04-25 19:51 13.03373 -51.32466 40965 ft 508 kts 73°
2026-04-25 19:52 13.05576 -51.25613 40969 ft 508 kts 73°
2026-04-25 19:52 13.07791 -51.18714 40968 ft 508 kts 73°
2026-04-25 19:53 13.10006 -51.11807 40971 ft 508 kts 73°
2026-04-25 19:53 13.12201 -51.04958 40964 ft 508 kts 73°
2026-04-25 19:54 13.14414 -50.98041 40968 ft 509 kts 73°
2026-04-25 19:54 13.16627 -50.91121 40976 ft 509 kts 73°
2026-04-25 19:55 13.18821 -50.84255 40972 ft 510 kts 73°
2026-04-25 19:55 13.21030 -50.77331 40976 ft 510 kts 73°
2026-04-25 19:56 13.23224 -50.70448 40971 ft 510 kts 73°
2026-04-25 19:56 13.25433 -50.63513 40971 ft 510 kts 73°
2026-04-25 19:57 13.27625 -50.56623 40979 ft 510 kts 73°
2026-04-25 19:57 13.29829 -50.49688 40979 ft 510 kts 73°
2026-04-25 19:58 13.32030 -50.42756 40977 ft 510 kts 73°
2026-04-25 19:58 13.34229 -50.35820 40974 ft 510 kts 73°
2026-04-25 19:59 13.36414 -50.28923 40975 ft 510 kts 73°
2026-04-25 19:59 13.38617 -50.21965 40975 ft 510 kts 73°
2026-04-25 20:00 13.40439 -50.16199 40978 ft 510 kts 73°
2026-04-25 20:00 13.42994 -50.08113 40979 ft 511 kts 73°
2026-04-25 20:01 13.46284 -49.97681 40982 ft 511 kts 73°
2026-04-25 20:01 13.48458 -49.90780 40979 ft 511 kts 73°
2026-04-25 20:02 13.50649 -49.83815 40981 ft 511 kts 73°
2026-04-25 20:02 13.52841 -49.76843 40981 ft 512 kts 73°
2026-04-25 20:03 13.55017 -49.69914 40979 ft 512 kts 73°
2026-04-25 20:03 13.57205 -49.62937 40978 ft 512 kts 73°
2026-04-25 20:04 13.59388 -49.55972 40979 ft 512 kts 73°
2026-04-25 20:04 13.61567 -49.49008 40979 ft 511 kts 73°
2026-04-25 20:05 13.63747 -49.42037 40984 ft 511 kts 73°
2026-04-25 20:05 13.65910 -49.35112 40985 ft 511 kts 73°
2026-04-25 20:06 13.68086 -49.28135 40984 ft 512 kts 73°
2026-04-25 20:06 13.70261 -49.21157 40978 ft 512 kts 73°
2026-04-25 20:07 13.72421 -49.14220 40983 ft 511 kts 73°
2026-04-25 20:07 13.74593 -49.07234 40987 ft 511 kts 73°
2026-04-25 20:08 13.76747 -49.00302 40988 ft 511 kts 73°
2026-04-25 20:08 13.78914 -48.93317 40988 ft 511 kts 73°
2026-04-25 20:09 13.81076 -48.86343 40988 ft 511 kts 73°
2026-04-25 20:09 13.83236 -48.79365 40988 ft 511 kts 73°
2026-04-25 20:10 13.85386 -48.72414 40991 ft 511 kts 73°
2026-04-25 20:10 13.87534 -48.65460 40990 ft 511 kts 73°
2026-04-25 20:11 13.89690 -48.58474 40993 ft 511 kts 73°
2026-04-25 20:11 13.91841 -48.51499 40994 ft 511 kts 73°
2026-04-25 20:12 13.93992 -48.44512 40993 ft 511 kts 73°
2026-04-25 20:12 13.95413 -48.39893 40993 ft 511 kts 73°
2026-04-25 20:13 13.98269 -48.30600 40991 ft 511 kts 73°
2026-04-25 20:13 14.00414 -48.23608 40993 ft 512 kts 73°
2026-04-25 20:14 14.02560 -48.16607 40993 ft 511 kts 73°
2026-04-25 20:14 14.04687 -48.09663 40996 ft 511 kts 73°
2026-04-25 20:15 14.06829 -48.02658 40996 ft 511 kts 73°
2026-04-25 20:15 14.08951 -47.95712 40996 ft 511 kts 73°
2026-04-25 20:16 14.11078 -47.88743 40996 ft 511 kts 73°
2026-04-25 20:16 14.13216 -47.81732 40996 ft 511 kts 73°
2026-04-25 20:17 14.15336 -47.74766 40996 ft 512 kts 73°
2026-04-25 20:17 14.17469 -47.67754 40996 ft 512 kts 73°
2026-04-25 20:18 14.19585 -47.60790 40998 ft 512 kts 73°
2026-04-25 20:18 14.21719 -47.53757 40999 ft 512 kts 73°
2026-04-25 20:19 14.23846 -47.46737 40999 ft 512 kts 73°
2026-04-25 20:19 14.25956 -47.39768 40999 ft 512 kts 73°
2026-04-25 20:20 14.28079 -47.32748 40999 ft 513 kts 73°
2026-04-25 20:20 14.30205 -47.25709 40999 ft 513 kts 73°
2026-04-25 20:21 14.32326 -47.18678 41001 ft 513 kts 73°
2026-04-25 20:21 14.34435 -47.11681 41001 ft 514 kts 73°
2026-04-25 20:22 14.35859 -47.06952 41001 ft 514 kts 73°
2026-04-25 20:22 14.38665 -46.97619 41001 ft 514 kts 73°
2026-04-25 20:23 14.40782 -46.90569 41002 ft 513 kts 73°
2026-04-25 20:23 14.42893 -46.83532 41001 ft 513 kts 73°
2026-04-25 20:24 14.44993 -46.76521 41005 ft 514 kts 73°
2026-04-25 20:24 14.47107 -46.69457 41004 ft 515 kts 73°
2026-04-25 20:25 14.49222 -46.62380 41007 ft 515 kts 73°
2026-04-25 20:25 14.51320 -46.55352 41007 ft 515 kts 73°
2026-04-25 20:26 14.53431 -46.48273 41010 ft 515 kts 73°
2026-04-25 20:26 14.55530 -46.41227 41009 ft 515 kts 73°
2026-04-25 20:27 14.57636 -46.34145 41009 ft 515 kts 73°
2026-04-25 20:27 14.59728 -46.27104 41010 ft 516 kts 73°
2026-04-25 20:28 14.61833 -46.20010 41010 ft 516 kts 73°
2026-04-25 20:28 14.63939 -46.12904 41010 ft 516 kts 73°
2026-04-25 20:29 14.66029 -46.05844 41010 ft 517 kts 73°
2026-04-25 20:29 14.68133 -45.98727 41010 ft 517 kts 73°
2026-04-25 20:30 14.70223 -45.91651 41012 ft 517 kts 73°
2026-04-25 20:30 14.72321 -45.84537 41011 ft 517 kts 73°
2026-04-25 20:31 14.74404 -45.77466 41012 ft 517 kts 73°
2026-04-25 20:31 14.76501 -45.70339 41015 ft 518 kts 73°
2026-04-25 20:32 14.78585 -45.63246 41015 ft 518 kts 73°
2026-04-25 20:32 14.80681 -45.56105 41016 ft 518 kts 73°
2026-04-25 20:33 14.82769 -45.48983 41018 ft 517 kts 73°
2026-04-25 20:33 14.84151 -45.44263 41018 ft 517 kts 73°
2026-04-25 20:34 14.86927 -45.34769 41018 ft 517 kts 73°
2026-04-25 20:34 14.89012 -45.27632 41020 ft 518 kts 73°
2026-04-25 20:35 14.91081 -45.20538 41020 ft 518 kts 73°
2026-04-25 20:35 14.93163 -45.13390 41021 ft 518 kts 73°
2026-04-25 20:36 14.94890 -45.07455 41020 ft 517 kts 73°
2026-04-25 20:36 14.97302 -44.99156 41021 ft 517 kts 73°
2026-04-25 20:37 14.99025 -44.93218 41020 ft 517 kts 73°
2026-04-25 20:37 15.01098 -44.86068 41021 ft 517 kts 73°
2026-04-25 20:38 15.03153 -44.78970 41021 ft 517 kts 73°
2026-04-25 20:38 15.05221 -44.71818 41020 ft 517 kts 73°
2026-04-25 20:39 15.07276 -44.64704 41018 ft 517 kts 73°
2026-04-25 20:39 15.08987 -44.58770 41023 ft 517 kts 73°
2026-04-25 20:40 15.11381 -44.50462 41023 ft 517 kts 73°
2026-04-25 20:40 15.13435 -44.43323 41023 ft 517 kts 73°
2026-04-25 20:41 15.15488 -44.36175 41023 ft 517 kts 73°
2026-04-25 20:41 15.17537 -44.29038 41023 ft 517 kts 73°
2026-04-25 20:42 15.19586 -44.21888 41027 ft 517 kts 73°
2026-04-25 20:42 15.21620 -44.14780 41026 ft 518 kts 73°
2026-04-25 20:43 15.23668 -44.07616 41026 ft 518 kts 73°
2026-04-25 20:43 15.25710 -44.00462 41025 ft 518 kts 73°
2026-04-25 20:44 15.27752 -43.93302 41026 ft 518 kts 73°
2026-04-25 20:44 15.29792 -43.86135 41026 ft 518 kts 73°
2026-04-25 20:45 15.31830 -43.78968 41026 ft 519 kts 73°
2026-04-25 20:45 15.33856 -43.71833 41029 ft 519 kts 73°
2026-04-25 20:46 15.35886 -43.64676 41029 ft 519 kts 73°
2026-04-25 20:46 15.37921 -43.57492 41029 ft 519 kts 73°
2026-04-25 20:47 15.39954 -43.50302 41029 ft 519 kts 73°
2026-04-25 20:47 15.41985 -43.43114 41029 ft 519 kts 73°
2026-04-25 20:48 15.44005 -43.35952 41029 ft 520 kts 73°
2026-04-25 20:48 15.46037 -43.28741 41031 ft 520 kts 73°
2026-04-25 20:49 15.48051 -43.21580 41032 ft 520 kts 73°
2026-04-25 20:49 15.50080 -43.14360 41031 ft 521 kts 73°
2026-04-25 20:50 15.52094 -43.07182 41034 ft 521 kts 73°
2026-04-25 20:50 15.54118 -42.99958 41033 ft 521 kts 73°
2026-04-25 20:51 15.56132 -42.92762 41034 ft 521 kts 73°
2026-04-25 20:51 15.58155 -42.85525 41034 ft 521 kts 73°
2026-04-25 20:52 15.59830 -42.79523 41037 ft 521 kts 73°
2026-04-25 20:52 15.62173 -42.71116 41037 ft 521 kts 73°
2026-04-25 20:53 15.64190 -42.63867 41040 ft 521 kts 73°
2026-04-25 20:53 15.66199 -42.56639 41040 ft 521 kts 73°
2026-04-25 20:54 15.68194 -42.49451 41040 ft 521 kts 73°
2026-04-25 20:54 15.70202 -42.42206 41039 ft 521 kts 73°
2026-04-25 20:55 15.72208 -42.34961 41042 ft 521 kts 73°
2026-04-25 20:55 15.74195 -42.27770 41042 ft 521 kts 73°
2026-04-25 20:56 15.76197 -42.20518 41042 ft 521 kts 73°
2026-04-25 20:56 15.78183 -42.13312 41042 ft 521 kts 73°
2026-04-25 20:57 15.80181 -42.06053 41042 ft 521 kts 73°
2026-04-25 20:57 15.82174 -41.98803 41045 ft 521 kts 73°
2026-04-25 20:58 15.84146 -41.91619 41045 ft 521 kts 73°
2026-04-25 20:58 15.86132 -41.84374 41048 ft 521 kts 73°
2026-04-25 20:59 15.88122 -41.77102 41048 ft 521 kts 73°
2026-04-25 20:59 15.90090 -41.69904 41048 ft 521 kts 73°
2026-04-25 21:00 15.91415 -41.65048 41050 ft 521 kts 73°
2026-04-25 21:01 15.95038 -41.51755 41049 ft 522 kts 73°
2026-04-25 21:01 15.97013 -41.44491 41048 ft 522 kts 73°
2026-04-25 21:02 15.98976 -41.37263 41047 ft 522 kts 73°
2026-04-25 21:02 16.00950 -41.29983 41048 ft 522 kts 73°
2026-04-25 21:03 16.02909 -41.22752 41052 ft 522 kts 73°
2026-04-25 21:03 16.04875 -41.15481 41050 ft 522 kts 73°
2026-04-25 21:04 16.06840 -41.08204 41052 ft 522 kts 73°
2026-04-25 21:04 16.08803 -41.00922 41053 ft 522 kts 73°
2026-04-25 21:05 16.10767 -40.93628 41055 ft 522 kts 73°
2026-04-25 21:05 16.12714 -40.86384 41054 ft 523 kts 73°
2026-04-25 21:06 16.14672 -40.79091 41052 ft 523 kts 73°
2026-04-25 21:06 16.16630 -40.71789 41053 ft 523 kts 73°
2026-04-25 21:07 16.18584 -40.64486 41056 ft 523 kts 73°
2026-04-25 21:07 16.20524 -40.57229 41056 ft 523 kts 73°
2026-04-25 21:08 16.22478 -40.49906 41055 ft 523 kts 73°
2026-04-25 21:08 16.24413 -40.42647 41059 ft 524 kts 73°
2026-04-25 21:09 16.27332 -40.31673 41056 ft 524 kts 73°
2026-04-25 21:09 16.29275 -40.24355 41057 ft 524 kts 73°
2026-04-25 21:10 16.31214 -40.17041 41059 ft 524 kts 73°
2026-04-25 21:10 16.33142 -40.09757 41059 ft 524 kts 73°
2026-04-25 21:11 16.35080 -40.02425 41058 ft 524 kts 73°
2026-04-25 21:11 16.37013 -39.95098 41059 ft 524 kts 73°
2026-04-25 21:12 16.38934 -39.87810 41061 ft 525 kts 73°
2026-04-25 21:12 16.40549 -39.81672 41061 ft 525 kts 73°
2026-04-25 21:13 16.42790 -39.73142 41060 ft 525 kts 73°
2026-04-25 21:13 16.44716 -39.65801 41060 ft 525 kts 73°
2026-04-25 21:14 16.46630 -39.58493 41060 ft 525 kts 73°
2026-04-25 21:14 16.48555 -39.51133 41060 ft 525 kts 73°
2026-04-25 21:15 16.50465 -39.43819 41061 ft 525 kts 73°
2026-04-25 21:15 16.52382 -39.36466 41064 ft 525 kts 73°
2026-04-25 21:16 16.54287 -39.29148 41066 ft 526 kts 73°
2026-04-25 21:16 16.56203 -39.21775 41066 ft 526 kts 73°
2026-04-25 21:17 16.58117 -39.14403 41062 ft 526 kts 73°
2026-04-25 21:17 16.60015 -39.07075 41062 ft 526 kts 73°
2026-04-25 21:18 16.61928 -38.99682 41063 ft 526 kts 73°
2026-04-25 21:18 16.63825 -38.92340 41066 ft 527 kts 73°
2026-04-25 21:19 16.65728 -38.84960 41062 ft 526 kts 73°
2026-04-25 21:19 16.67627 -38.77585 41064 ft 526 kts 73°
2026-04-25 21:20 16.68886 -38.72689 41069 ft 526 kts 73°
2026-04-25 21:20 16.71414 -38.62844 41063 ft 526 kts 73°
2026-04-25 21:21 16.73308 -38.55454 41070 ft 527 kts 73°
2026-04-25 21:21 16.75185 -38.48116 41070 ft 527 kts 73°
2026-04-25 21:22 16.77072 -38.40732 41069 ft 527 kts 73°
2026-04-25 21:22 16.78958 -38.33338 41069 ft 527 kts 73°
2026-04-25 21:23 16.80843 -38.25935 41072 ft 527 kts 73°
2026-04-25 21:23 16.82725 -38.18533 41069 ft 527 kts 73°
2026-04-25 21:24 16.84597 -38.11158 41071 ft 528 kts 73°
2026-04-25 21:24 16.86478 -38.03738 41066 ft 528 kts 73°
2026-04-25 21:25 16.88040 -37.97565 41074 ft 528 kts 74°
2026-04-25 21:25 16.90219 -37.88937 41072 ft 528 kts 73°
2026-04-25 21:26 16.91778 -37.82760 41071 ft 529 kts 73°
2026-04-25 21:26 16.93651 -37.75323 41073 ft 529 kts 74°
2026-04-25 21:27 16.95525 -37.67871 41073 ft 529 kts 74°
2026-04-25 21:27 16.97381 -37.60477 41072 ft 529 kts 74°
2026-04-25 21:28 16.99226 -37.53024 41069 ft 529 kts 76°
2026-04-25 21:28 16.99838 -37.45382 41078 ft 531 kts 90°
2026-04-25 21:29 16.99666 -37.37647 41078 ft 532 kts 92°
2026-04-25 21:29 16.99365 -37.29908 41075 ft 532 kts 92°
2026-04-25 21:30 16.99071 -37.22228 41076 ft 532 kts 92°
2026-04-25 21:30 16.98840 -37.15783 41079 ft 533 kts 91°
2026-04-25 21:31 16.98525 -37.06771 41083 ft 533 kts 91°
2026-04-25 21:31 16.98252 -36.99005 41089 ft 533 kts 91°
2026-04-25 21:32 16.97977 -36.91294 41076 ft 533 kts 91°
2026-04-25 21:32 16.97697 -36.83537 41079 ft 534 kts 91°
2026-04-25 21:33 16.97414 -36.75775 41077 ft 534 kts 91°
2026-04-25 21:33 16.97129 -36.68070 41076 ft 534 kts 91°
2026-04-25 21:34 16.96840 -36.60308 41080 ft 534 kts 91°
2026-04-25 21:34 16.96550 -36.52582 41079 ft 533 kts 92°
2026-04-25 21:35 16.96256 -36.44851 41083 ft 532 kts 92°
2026-04-25 21:35 16.95959 -36.37111 41080 ft 532 kts 92°
2026-04-25 21:36 16.95660 -36.29421 41085 ft 532 kts 92°
2026-04-25 21:36 16.95358 -36.21684 41082 ft 533 kts 92°
2026-04-25 21:37 16.95103 -36.15235 41085 ft 533 kts 92°
2026-04-25 21:37 16.94744 -36.06222 41080 ft 533 kts 92°
2026-04-25 21:38 16.94431 -35.98470 41076 ft 533 kts 92°
2026-04-25 21:38 16.94118 -35.90763 41083 ft 534 kts 92°
2026-04-25 21:39 16.93800 -35.83001 41080 ft 534 kts 92°
2026-04-25 21:39 16.93478 -35.75226 41085 ft 534 kts 92°
2026-04-25 21:40 16.93156 -35.67519 41080 ft 535 kts 92°
2026-04-25 21:40 16.92827 -35.59725 41081 ft 535 kts 92°
2026-04-25 21:41 16.92497 -35.51958 41087 ft 535 kts 92°
2026-04-25 21:41 16.92165 -35.44229 41087 ft 536 kts 92°
2026-04-25 21:42 16.91828 -35.36451 41080 ft 535 kts 92°
2026-04-25 21:42 16.91489 -35.28685 41080 ft 534 kts 92°
2026-04-25 21:43 16.91149 -35.20980 41080 ft 535 kts 92°
2026-04-25 21:43 16.90804 -35.13216 41078 ft 535 kts 92°
2026-04-25 21:44 16.90456 -35.05430 41080 ft 535 kts 92°
2026-04-25 21:45 16.89929 -34.93794 41080 ft 536 kts 92°
2026-04-25 21:45 16.89574 -34.86046 41078 ft 536 kts 92°
2026-04-25 21:46 16.89214 -34.78236 41087 ft 536 kts 92°
2026-04-25 21:46 16.88854 -34.70507 41084 ft 536 kts 92°
2026-04-25 21:47 16.88488 -34.62712 41080 ft 537 kts 92°
2026-04-25 21:47 16.88122 -34.54954 41080 ft 537 kts 92°
2026-04-25 21:48 16.87750 -34.47157 41082 ft 537 kts 92°
2026-04-25 21:48 16.87375 -34.39347 41080 ft 537 kts 92°
2026-04-25 21:49 16.86997 -34.31549 41078 ft 537 kts 92°
2026-04-25 21:49 16.86617 -34.23748 41077 ft 537 kts 92°
2026-04-25 21:50 16.86236 -34.15993 41084 ft 537 kts 92°
2026-04-25 21:50 16.85849 -34.08192 41079 ft 536 kts 92°
2026-04-25 21:51 16.85463 -34.00466 41079 ft 536 kts 92°
2026-04-25 21:51 16.85072 -33.92681 41079 ft 536 kts 92°
2026-04-25 21:52 16.84677 -33.84901 41077 ft 536 kts 92°
2026-04-25 21:52 16.84282 -33.77156 41077 ft 536 kts 92°
2026-04-25 21:53 16.83881 -33.69374 41080 ft 536 kts 92°
2026-04-25 21:53 16.83479 -33.61615 41076 ft 537 kts 92°
2026-04-25 21:54 16.83071 -33.53804 41080 ft 538 kts 92°
2026-04-25 21:54 16.82661 -33.45999 41076 ft 538 kts 92°
2026-04-25 21:55 16.82250 -33.38248 41077 ft 538 kts 92°
2026-04-25 21:55 16.81833 -33.30429 41079 ft 539 kts 92°
2026-04-25 21:56 16.81413 -33.22602 41078 ft 539 kts 92°
2026-04-25 21:56 16.80993 -33.14833 41081 ft 539 kts 92°
2026-04-25 21:57 16.80566 -33.07000 41077 ft 540 kts 92°
2026-04-25 21:57 16.80136 -32.99158 41055 ft 540 kts 92°
2026-04-25 21:58 16.79707 -32.91389 41075 ft 538 kts 93°
2026-04-25 21:58 16.79273 -32.83594 41075 ft 537 kts 93°
2026-04-25 21:59 16.78837 -32.75808 41074 ft 537 kts 93°
2026-04-25 21:59 16.78398 -32.68018 41077 ft 537 kts 93°
2026-04-25 22:00 16.77735 -32.56351 41082 ft 538 kts 93°
2026-04-25 22:00 16.77287 -32.48545 41078 ft 539 kts 93°
2026-04-25 22:01 16.76837 -32.40738 41075 ft 539 kts 93°
2026-04-25 22:01 16.76460 -32.34243 41075 ft 539 kts 93°
2026-04-25 22:02 16.75929 -32.25154 41070 ft 539 kts 93°
2026-04-25 22:02 16.75471 -32.17375 41072 ft 539 kts 93°
2026-04-25 22:03 16.75009 -32.09580 41075 ft 539 kts 93°
2026-04-25 22:03 16.74543 -32.01757 41077 ft 540 kts 93°
2026-04-25 22:04 16.74073 -31.93923 41071 ft 540 kts 93°
2026-04-25 22:04 16.73604 -31.86153 41072 ft 540 kts 93°
2026-04-25 22:05 16.73128 -31.78307 41080 ft 540 kts 93°
2026-04-25 22:05 16.72651 -31.70507 41066 ft 540 kts 93°
2026-04-25 22:06 16.72169 -31.62665 41074 ft 539 kts 93°
2026-04-25 22:06 16.71688 -31.54893 41076 ft 539 kts 93°
2026-04-25 22:07 16.71283 -31.48386 41071 ft 540 kts 93°
2026-04-25 22:07 16.70713 -31.39273 41072 ft 540 kts 93°
2026-04-25 22:08 16.70220 -31.31440 41071 ft 540 kts 93°
2026-04-25 22:08 16.69724 -31.23619 41069 ft 540 kts 93°
2026-04-25 22:09 16.69228 -31.15837 41073 ft 540 kts 93°
2026-04-25 22:09 16.68726 -31.08009 41070 ft 540 kts 93°
2026-04-25 22:10 16.68220 -31.00180 41072 ft 540 kts 93°
2026-04-25 22:10 16.67715 -30.92387 41066 ft 540 kts 93°
2026-04-25 22:11 16.67203 -30.84548 41064 ft 541 kts 93°
2026-04-25 22:11 16.66692 -30.76762 41062 ft 541 kts 93°
2026-04-25 22:12 16.66174 -30.68921 41066 ft 541 kts 93°
2026-04-25 22:12 16.65829 -30.63722 41068 ft 541 kts 93°
2026-04-25 22:13 16.65131 -30.53266 41062 ft 541 kts 94°
2026-04-25 22:13 16.64608 -30.45468 41063 ft 541 kts 94°
2026-04-25 22:14 16.64078 -30.37628 41063 ft 541 kts 94°
2026-04-25 22:14 16.63637 -30.31132 41066 ft 540 kts 94°
2026-04-25 22:15 16.63017 -30.22041 41066 ft 540 kts 94°
2026-04-25 22:16 16.62299 -30.11601 41068 ft 540 kts 94°
2026-04-25 22:16 16.61759 -30.03795 41064 ft 540 kts 94°
2026-04-25 22:17 16.61214 -29.95964 41060 ft 541 kts 94°
2026-04-25 22:17 16.60669 -29.88178 41060 ft 541 kts 94°
2026-04-25 22:18 16.60119 -29.80345 41061 ft 541 kts 94°
2026-04-25 22:18 16.59568 -29.72550 41060 ft 542 kts 94°
2026-04-25 22:19 16.59009 -29.64691 41055 ft 542 kts 94°
2026-04-25 22:19 16.58449 -29.56847 41056 ft 542 kts 94°
2026-04-25 22:20 16.57888 -29.49044 41057 ft 542 kts 94°
2026-04-25 22:20 16.57322 -29.41198 41052 ft 543 kts 94°
2026-04-25 22:21 16.56751 -29.33340 41055 ft 543 kts 94°
2026-04-25 22:21 16.56180 -29.25513 41052 ft 543 kts 94°
2026-04-25 22:22 16.55603 -29.17639 41052 ft 544 kts 94°
2026-04-25 22:22 16.55026 -29.09817 41051 ft 544 kts 94°
2026-04-25 22:23 16.54443 -29.01951 41047 ft 542 kts 94°
2026-04-25 22:23 16.53860 -28.94116 41050 ft 541 kts 94°
2026-04-25 22:24 16.53278 -28.86341 41052 ft 541 kts 94°
2026-04-25 22:24 16.52689 -28.78511 41051 ft 541 kts 94°
2026-04-25 22:25 16.52101 -28.70735 41046 ft 541 kts 94°
2026-04-25 22:25 16.51507 -28.62914 41049 ft 541 kts 94°
2026-04-25 22:26 16.50912 -28.55124 41046 ft 541 kts 94°
2026-04-25 22:26 16.50310 -28.47280 41050 ft 541 kts 94°
2026-04-25 22:27 16.49706 -28.39447 41044 ft 541 kts 94°
2026-04-25 22:27 16.49103 -28.31662 41044 ft 541 kts 94°
2026-04-25 22:28 16.48493 -28.23838 41041 ft 541 kts 95°
2026-04-25 22:28 16.47882 -28.16020 41041 ft 541 kts 95°
2026-04-25 22:29 16.47271 -28.08252 41047 ft 541 kts 95°
2026-04-25 22:29 16.46654 -28.00435 41043 ft 541 kts 95°
2026-04-25 22:30 16.45720 -27.88679 41041 ft 541 kts 95°
2026-04-25 22:30 16.45200 -27.82175 41044 ft 542 kts 95°
2026-04-25 22:31 16.44470 -27.73078 41039 ft 542 kts 95°
2026-04-25 22:31 16.43837 -27.65241 41030 ft 541 kts 95°
2026-04-25 22:32 16.43209 -27.57486 41039 ft 540 kts 95°
2026-04-25 22:32 16.42574 -27.49686 41040 ft 540 kts 95°
2026-04-25 22:33 16.41934 -27.41871 41035 ft 541 kts 95°
2026-04-25 22:33 16.41295 -27.34092 41032 ft 541 kts 95°
2026-04-25 22:34 16.40653 -27.26316 41034 ft 541 kts 95°
2026-04-25 22:34 16.40006 -27.18506 41038 ft 541 kts 95°
2026-04-25 22:35 16.39355 -27.10699 41038 ft 541 kts 95°
2026-04-25 22:35 16.38701 -27.02880 41036 ft 541 kts 95°
2026-04-25 22:36 16.38048 -26.95103 41034 ft 541 kts 95°
2026-04-25 22:36 16.37387 -26.87285 41033 ft 541 kts 95°
2026-04-25 22:37 16.36729 -26.79515 41031 ft 541 kts 95°
2026-04-25 22:37 16.36062 -26.71693 41030 ft 541 kts 95°
2026-04-25 22:38 16.35396 -26.63907 41032 ft 541 kts 95°
2026-04-25 22:38 16.34724 -26.56081 41037 ft 541 kts 95°
2026-04-25 22:39 16.34049 -26.48253 41026 ft 542 kts 95°
2026-04-25 22:39 16.33372 -26.40446 41024 ft 542 kts 95°
2026-04-25 22:40 16.32690 -26.32607 41025 ft 542 kts 95°
2026-04-25 22:40 16.32010 -26.24836 41026 ft 542 kts 95°
2026-04-25 22:41 16.31321 -26.16983 41027 ft 543 kts 95°
2026-04-25 22:41 16.30630 -26.09143 41024 ft 543 kts 95°
2026-04-25 22:42 16.29941 -26.01365 41027 ft 543 kts 95°
2026-04-25 22:42 16.29246 -25.93543 41025 ft 543 kts 95°
2026-04-25 22:43 16.28547 -25.85716 41005 ft 543 kts 95°
2026-04-25 22:43 16.27845 -25.77885 41007 ft 543 kts 95°
2026-04-25 22:44 16.27140 -25.70063 41003 ft 543 kts 95°
2026-04-25 22:44 16.26437 -25.62286 40999 ft 544 kts 95°
2026-04-25 22:45 16.25726 -25.54448 40994 ft 544 kts 95°
2026-04-25 22:45 16.25011 -25.46606 40995 ft 544 kts 95°
2026-04-25 22:46 16.24293 -25.38765 41001 ft 544 kts 95°
2026-04-25 22:46 16.23578 -25.30977 41000 ft 544 kts 95°
2026-04-25 22:47 16.22854 -25.23133 40998 ft 544 kts 95°
2026-04-25 22:47 16.22128 -25.15295 41000 ft 544 kts 95°
2026-04-25 22:48 16.21404 -25.07511 41000 ft 544 kts 95°
2026-04-25 22:48 16.20673 -24.99684 40997 ft 545 kts 95°
2026-04-25 22:49 16.19936 -24.91831 41001 ft 545 kts 95°
2026-04-25 22:49 16.19197 -24.83980 40992 ft 545 kts 95°
2026-04-25 22:50 16.18457 -24.76144 41001 ft 544 kts 95°
2026-04-25 22:50 16.17718 -24.68358 41006 ft 544 kts 95°
2026-04-25 22:51 16.16971 -24.60518 41002 ft 544 kts 95°
2026-04-25 22:51 16.16222 -24.52683 41000 ft 544 kts 95°
2026-04-25 22:52 16.15470 -24.44851 40999 ft 544 kts 95°
2026-04-25 22:52 16.14842 -24.38333 40996 ft 544 kts 95°
2026-04-25 22:53 16.13961 -24.29227 40998 ft 545 kts 95°
2026-04-25 22:53 16.13199 -24.21380 41003 ft 545 kts 96°
2026-04-25 22:54 16.12435 -24.13546 41007 ft 545 kts 96°
2026-04-25 22:54 16.11674 -24.05760 41012 ft 545 kts 96°
2026-04-25 22:55 16.10902 -23.97910 41014 ft 546 kts 96°
2026-04-25 22:55 16.10128 -23.90058 41014 ft 546 kts 96°
2026-04-25 22:56 16.09351 -23.82207 41013 ft 546 kts 96°
2026-04-25 22:56 16.08577 -23.74412 41005 ft 546 kts 96°
2026-04-25 22:57 16.07793 -23.66556 41008 ft 546 kts 96°
2026-04-25 22:57 16.07008 -23.58710 41008 ft 546 kts 96°
2026-04-25 22:58 16.06219 -23.50861 41009 ft 546 kts 96°
2026-04-25 22:58 16.05436 -23.43096 41010 ft 546 kts 96°
2026-04-25 22:59 16.04685 -23.35669 40995 ft 546 kts 96°
2026-04-25 22:59 16.03889 -23.27830 41002 ft 545 kts 96°
2026-04-25 23:00 16.03090 -23.19997 41008 ft 545 kts 96°
2026-04-25 23:00 16.02290 -23.12169 41008 ft 545 kts 96°
2026-04-25 23:01 16.01492 -23.04396 41012 ft 544 kts 96°
2026-04-25 23:01 16.00685 -22.96564 41009 ft 544 kts 96°
2026-04-25 23:02 15.99877 -22.88752 41009 ft 544 kts 96°
2026-04-25 23:02 15.99066 -22.80938 40999 ft 544 kts 96°
2026-04-25 23:03 15.98257 -22.73169 41002 ft 545 kts 96°
2026-04-25 23:03 15.97438 -22.65332 41003 ft 545 kts 96°
2026-04-25 23:04 15.96756 -22.58829 41007 ft 545 kts 96°
2026-04-25 23:04 15.95154 -22.49786 41001 ft 544 kts 106°
2026-04-25 23:05 15.93065 -22.42225 41002 ft 545 kts 107°
2026-04-25 23:05 15.90948 -22.34709 41000 ft 546 kts 107°
2026-04-25 23:06 15.88810 -22.27146 41001 ft 546 kts 107°
2026-04-25 23:06 15.86669 -22.19586 41001 ft 546 kts 107°
2026-04-25 23:07 15.84525 -22.12028 41000 ft 544 kts 107°
2026-04-25 23:07 15.82397 -22.04536 40998 ft 542 kts 107°
2026-04-25 23:08 15.80261 -21.97029 41000 ft 542 kts 107°
2026-04-25 23:08 15.78123 -21.89524 41000 ft 542 kts 107°
2026-04-25 23:09 15.75991 -21.82050 40995 ft 542 kts 107°
2026-04-25 23:09 15.73846 -21.74545 40991 ft 542 kts 107°
2026-04-25 23:10 15.71695 -21.67025 40995 ft 543 kts 107°
2026-04-25 23:10 15.69550 -21.59540 40993 ft 543 kts 108°
2026-04-25 23:11 15.67388 -21.52005 40992 ft 543 kts 108°
2026-04-25 23:11 15.65243 -21.44538 40990 ft 543 kts 108°
2026-04-25 23:12 15.63081 -21.37023 40989 ft 543 kts 108°
2026-04-25 23:12 15.60917 -21.29514 40989 ft 542 kts 108°
2026-04-25 23:13 15.58765 -21.22053 40985 ft 540 kts 108°
2026-04-25 23:13 15.56611 -21.14599 40985 ft 539 kts 108°
2026-04-25 23:14 15.54461 -21.07166 40986 ft 540 kts 108°
2026-04-25 23:14 15.52300 -20.99706 40984 ft 540 kts 108°
2026-04-25 23:15 15.50135 -20.92246 40982 ft 540 kts 108°
2026-04-25 23:15 15.47984 -20.84840 40982 ft 540 kts 108°
2026-04-25 23:16 15.45811 -20.77369 40980 ft 540 kts 108°
2026-04-25 23:16 15.43648 -20.69946 40980 ft 540 kts 108°
2026-04-25 23:17 15.41470 -20.62479 40977 ft 540 kts 108°
2026-04-25 23:17 15.39308 -20.55074 40976 ft 540 kts 108°
2026-04-25 23:18 15.37124 -20.47607 40976 ft 540 kts 108°
2026-04-25 23:18 15.34941 -20.40153 40974 ft 539 kts 108°
2026-04-25 23:19 15.32776 -20.32771 40969 ft 538 kts 108°
2026-04-25 23:19 15.30599 -20.25356 40968 ft 538 kts 108°
2026-04-25 23:20 15.28412 -20.17919 40969 ft 538 kts 108°
2026-04-25 23:20 15.26224 -20.10487 40966 ft 538 kts 108°
2026-04-25 23:21 15.24051 -20.03116 40963 ft 538 kts 108°
2026-04-25 23:21 15.21857 -19.95685 40963 ft 538 kts 108°
2026-04-25 23:22 15.19662 -19.88260 40960 ft 538 kts 108°
2026-04-25 23:23 15.16383 -19.77184 40958 ft 538 kts 108°
2026-04-25 23:23 15.14554 -19.71018 40956 ft 538 kts 108°
2026-04-25 23:24 15.12353 -19.63604 40953 ft 538 kts 108°
2026-04-25 23:24 15.10149 -19.56190 40954 ft 537 kts 108°
2026-04-25 23:25 15.07954 -19.48815 40953 ft 535 kts 108°
2026-04-25 23:25 15.05770 -19.41487 40952 ft 535 kts 108°
2026-04-25 23:26 15.03583 -19.34158 40948 ft 534 kts 108°
2026-04-25 23:26 15.01387 -19.26810 40950 ft 534 kts 108°
2026-04-25 23:27 14.99190 -19.19468 40948 ft 534 kts 108°
2026-04-25 23:27 14.96987 -19.12111 40947 ft 534 kts 108°
2026-04-25 23:28 14.94784 -19.04768 40940 ft 534 kts 108°
2026-04-25 23:28 14.92592 -18.97470 40936 ft 534 kts 108°
2026-04-25 23:29 14.90383 -18.90125 40937 ft 534 kts 108°
2026-04-25 23:29 14.88174 -18.82789 40936 ft 534 kts 108°
2026-04-25 23:29 14.87071 -18.79127 40819 ft 523 kts 108°
2026-04-25 23:30 14.86018 -18.75631 40072 ft 510 kts 108°
2026-04-25 23:30 14.84961 -18.72126 38831 ft 510 kts 108°
2026-04-25 23:30 14.83897 -18.68605 37432 ft 511 kts 108°
2026-04-25 23:30 14.82837 -18.65101 36035 ft 511 kts 108°
2026-04-25 23:31 14.81788 -18.61630 34659 ft 512 kts 108°
2026-04-25 23:31 14.80718 -18.58094 33166 ft 513 kts 107°
2026-04-25 23:31 14.79651 -18.54569 31671 ft 514 kts 107°
2026-04-25 23:31 14.78594 -18.51082 30965 ft 499 kts 107°
2026-04-25 23:32 14.77569 -18.47701 30387 ft 496 kts 106°
2026-04-25 23:32 14.76538 -18.44300 29760 ft 494 kts 106°
2026-04-25 23:32 14.75511 -18.40911 29080 ft 491 kts 106°
2026-04-25 23:32 14.74492 -18.37552 28464 ft 487 kts 106°
2026-04-25 23:33 14.73483 -18.34229 27841 ft 483 kts 106°
2026-04-25 23:33 14.72480 -18.30928 27207 ft 479 kts 107°
2026-04-25 23:33 14.71497 -18.27693 26601 ft 475 kts 107°
2026-04-25 23:33 14.70512 -18.24454 25975 ft 471 kts 107°
2026-04-25 23:34 14.69534 -18.21242 25360 ft 467 kts 107°
2026-04-25 23:34 14.68561 -18.18046 24734 ft 464 kts 107°
2026-04-25 23:34 14.67593 -18.14867 24109 ft 461 kts 107°
2026-04-25 23:34 14.66634 -18.11720 23492 ft 457 kts 107°
2026-04-25 23:35 14.65690 -18.08625 22778 ft 453 kts 108°
2026-04-25 23:35 14.64746 -18.05533 22103 ft 449 kts 108°
2026-04-25 23:35 14.63813 -18.02475 21470 ft 443 kts 108°
2026-04-25 23:35 14.62887 -17.99446 20839 ft 438 kts 108°
2026-04-25 23:36 14.61983 -17.96487 20221 ft 434 kts 108°
2026-04-25 23:36 14.61076 -17.93521 19609 ft 429 kts 108°
2026-04-25 23:36 14.60176 -17.90579 18995 ft 426 kts 108°
2026-04-25 23:36 14.59288 -17.87676 18379 ft 422 kts 108°
2026-04-25 23:37 14.58416 -17.84829 17725 ft 418 kts 109°
2026-04-25 23:37 14.57541 -17.81972 17098 ft 413 kts 108°
2026-04-25 23:37 14.56680 -17.79164 16494 ft 407 kts 109°
2026-04-25 23:37 14.55830 -17.76390 15916 ft 401 kts 109°
2026-04-25 23:38 14.55003 -17.73693 15334 ft 396 kts 109°
2026-04-25 23:38 14.54174 -17.70993 14764 ft 391 kts 109°
2026-04-25 23:38 14.53359 -17.68337 14199 ft 385 kts 109°
2026-04-25 23:38 14.52554 -17.65713 13630 ft 380 kts 110°
2026-04-25 23:39 14.51759 -17.63127 13046 ft 374 kts 109°
2026-04-25 23:39 14.50977 -17.60587 12484 ft 367 kts 109°
2026-04-25 23:39 14.50222 -17.58132 11957 ft 360 kts 109°
2026-04-25 23:39 14.49473 -17.55691 11432 ft 353 kts 110°
2026-04-25 23:40 14.48732 -17.53288 10930 ft 347 kts 111°
2026-04-25 23:40 14.48008 -17.50936 10511 ft 338 kts 109°
2026-04-25 23:40 14.47324 -17.48711 10381 ft 320 kts 110°
2026-04-25 23:40 14.46668 -17.46570 10246 ft 304 kts 111°
2026-04-25 23:41 14.46053 -17.44572 10032 ft 284 kts 110°
2026-04-25 23:41 14.45453 -17.42636 9689 ft 283 kts 110°
2026-04-25 23:41 14.44849 -17.40695 9331 ft 291 kts 109°
2026-04-25 23:41 14.44230 -17.38698 8975 ft 291 kts 110°
2026-04-25 23:42 14.43616 -17.36714 8608 ft 290 kts 109°
2026-04-25 23:42 14.43004 -17.34735 8242 ft 289 kts 109°
2026-04-25 23:42 14.42391 -17.32751 7876 ft 289 kts 108°
2026-04-25 23:42 14.41789 -17.30803 7519 ft 288 kts 108°
2026-04-25 23:43 14.41178 -17.28825 7147 ft 288 kts 107°
2026-04-25 23:43 14.40570 -17.26860 6790 ft 287 kts 107°
2026-04-25 23:43 14.39962 -17.24896 6422 ft 287 kts 106°
2026-04-25 23:43 14.39360 -17.22948 6133 ft 280 kts 106°
2026-04-25 23:44 14.38788 -17.21104 5990 ft 265 kts 106°
2026-04-25 23:44 14.38227 -17.19291 5804 ft 264 kts 105°
2026-04-25 23:44 14.37729 -17.17477 5537 ft 261 kts 98°
2026-04-25 23:44 14.37605 -17.15648 5316 ft 258 kts 88°
2026-04-25 23:45 14.37620 -17.13805 5050 ft 256 kts 86°
2026-04-25 23:45 14.37648 -17.11971 4779 ft 255 kts 85°
2026-04-25 23:45 14.37705 -17.10154 4535 ft 251 kts 82°
2026-04-25 23:45 14.38235 -17.08472 4342 ft 246 kts 55°
2026-04-25 23:46 14.39486 -17.07334 4097 ft 239 kts 24°
2026-04-25 23:46 14.41053 -17.07002 4003 ft 223 kts
2026-04-25 23:46 14.42532 -17.07009 3994 ft 206 kts 359°
2026-04-25 23:46 14.43908 -17.07049 3996 ft 187 kts 359°
2026-04-25 23:47 14.45127 -17.07066 3998 ft 162 kts 360°
2026-04-25 23:47 14.46180 -17.07079 3895 ft 141 kts 360°
2026-04-25 23:47 14.47112 -17.07095 3725 ft 130 kts 360°
2026-04-25 23:47 14.47982 -17.07104 3547 ft 121 kts
2026-04-25 23:48 14.48823 -17.07110 3397 ft 121 kts
2026-04-25 23:48 14.49667 -17.07118 3247 ft 121 kts
2026-04-25 23:48 14.50500 -17.07127 3093 ft 120 kts
2026-04-25 23:48 14.51330 -17.07134 2936 ft 118 kts
2026-04-25 23:49 14.52154 -17.07142 2776 ft 119 kts
2026-04-25 23:49 14.52983 -17.07149 2639 ft 119 kts
2026-04-25 23:49 14.53816 -17.07156 2480 ft 120 kts 359°
2026-04-25 23:49 14.54638 -17.07165 2338 ft 117 kts
2026-04-25 23:50 14.55446 -17.07174 2192 ft 117 kts
2026-04-25 23:50 14.56261 -17.07180 2036 ft 116 kts
2026-04-25 23:50 14.57074 -17.07188 1897 ft 117 kts 360°
2026-04-25 23:50 14.57889 -17.07196 1741 ft 116 kts
2026-04-25 23:51 14.58696 -17.07202 1597 ft 115 kts 359°
2026-04-25 23:51 14.59487 -17.07211 1444 ft 114 kts
2026-04-25 23:51 14.60282 -17.07218 1295 ft 113 kts 359°
2026-04-25 23:51 14.61072 -17.07225 1146 ft 114 kts 359°
2026-04-25 23:52 14.61866 -17.07233 1007 ft 114 kts 358°
2026-04-25 23:52 14.62662 -17.07239 822 ft 114 kts 359°
2026-04-25 23:52 14.63448 -17.07233 691 ft 114 kts 358°
2026-04-25 23:52 14.64242 -17.07253 540 ft 114 kts 358°
2026-04-25 23:53 14.65036 -17.07263 404 ft 114 kts 359°
2026-04-25 23:53 14.65817 -17.07269 298 ft 112 kts 359°
2026-04-25 23:53 14.66481 -17.07276 301 ft 74 kts 359°
2026-04-25 23:53 14.66896 -17.07280 307 ft 53 kts 360°
2026-04-25 23:54 14.67055 -17.07254 309 ft 15 kts 42°
2026-04-25 23:54 14.67077 -17.07133 305 ft 21 kts 92°
2026-04-25 23:54 14.67076 -17.07087 304 ft 8 kts 90°
2026-04-25 23:54 14.67060 -17.06996 303 ft 14 kts 135°
2026-04-25 23:55 14.67019 -17.06932 301 ft 11 kts 96°
2026-04-25 23:55 14.67023 -17.06873 302 ft 0 kts 88°